Hourly Weather Roundup
Issued by NWS Central Illinois

Home | Current Version | Previous Version | Text Only | Print | Product List | Glossary On
Versions: 1 2 3 4 5 6 7 8 9 10 11 12 13 14 15 16 17 18 19 20 21 22 23 24 25 26 27 28 29 30 31 32 33 34 35 36 37 38 39 40 41 42 43 44 45 46 47 48 49 50
663
NZUS43 KILX 181810
HWRILX

Area Weather Roundup
National Weather Service Lincoln IL
1200 PM CST SAT NOV 18 2017

NOTE:  "FAIR" indicates few or no clouds below 12,000 feet, with
       no sigificant weather and/or obstructions to visibility.


CITY           SKY/WX    TMP DP  RH WIND       PRES   REMARKS
Bloomington    LGT RAIN  40  38  93 N23G30    29.42S FOG     WCI  30
6HR MIN TEMP:  40; 6HR MAX TEMP:  51; 6HR PCP:  1.39;

Champaign      CLOUDY    46  43  89 N30G38    29.33S
6HR MIN TEMP:  46; 6HR MAX TEMP:  64; 6HR PCP:  0.79;

Danville       DRIZZLE   47  46  96 N23G30    29.29S
6HR MIN TEMP:  47; 6HR MAX TEMP:  61; 6HR PCP:  1.56;

Decatur        CLOUDY    45  42  89 N28G37    29.42R
6HR MIN TEMP:  45; 6HR MAX TEMP:  65; 6HR PCP:  0.05;

Effingham      TSTM      55  55 100 W23       29.34R
6HR MIN TEMP:  55; 6HR MAX TEMP:  69; 6HR PCP:  0.35;

Flora          PTSUNNY   68  63  82 S24G37    29.28F
6HR MIN TEMP:  64; 6HR MAX TEMP:  69;

Galesburg      RAIN      36  36 100 NW18      29.63R WCI  26
6HR MIN TEMP:  36; 6HR MAX TEMP:  44; 6HR PCP:  0.30;

Jacksonville   LGT RAIN  40  39  94 NW25G35   29.55R WCI  30
6HR MIN TEMP:  40; 6HR MAX TEMP:  60; 6HR PCP:  0.17;

Lacon          RAIN      37  36  96 N18G24    29.54R WCI  27
6HR MIN TEMP:  37; 6HR MAX TEMP:  46; 6HR PCP:  0.84;

Lawrenceville  CLOUDY    68  62  81 SW28G43   29.29F
6HR MIN TEMP:  63; 6HR MAX TEMP:  68; 6HR PCP: TRACE;

Litchfield     CLOUDY    42  41  95 NW30G43   29.46R FOG     WCI  31
6HR MIN TEMP:  42; 6HR MAX TEMP:  65; 6HR PCP:  0.29;

$$


CITY           SKY/WX    TMP DP  RH WIND       PRES   REMARKS
Lincoln        LGT RAIN  42  41  97 NW13G21   29.50R
6HR MIN TEMP:  42; 6HR MAX TEMP:  55; 6HR PCP:  1.54;

Macomb         LGT SNOW  36  36  98 N21G36    29.64S WCI  25
6HR MIN TEMP:  36; 6HR MAX TEMP:  47;

Mattoon        LGT RAIN  50  49  96 N22G36    29.30S
6HR MIN TEMP:  50; 6HR MAX TEMP:  67; 6HR PCP:  0.42;

Mt Carmel AP   CLOUDY    67  61  81 SW31G39   29.29F
6HR MIN TEMP:  62; 6HR MAX TEMP:  67;

Olney-Noble AP LGT RAIN  67  65  93 S18G30    29.29F
Paris AP       TSTM      55  54  97 N16       29.28R
6HR MIN TEMP:  55; 6HR MAX TEMP:  65; 6HR PCP:  0.55;

Peoria         LGT RAIN  39  37  92 NW14G35   29.55R FOG     WCI  31
6HR MIN TEMP:  39; 6HR MAX TEMP:  49; 6HR PCP:  0.66;

Pontiac        LGT RAIN  40  40  99 N18G29    29.46R WCI  31
6HR MIN TEMP:  40; 6HR MAX TEMP:  48; 6HR PCP:  0.76;

Rantoul        CLOUDY    46  44  93 N21G32    29.36R
6HR MIN TEMP:  46; 6HR MAX TEMP:  58; 6HR PCP:  0.85;

Robinson       CLOUDY    67  61  80 SW26G39   29.29F
6HR MIN TEMP:  61; 6HR MAX TEMP:  67;

Springfield    CLOUDY    43  40  89 N24G32    29.50R WCI  33
6HR MIN TEMP:  43; 6HR MAX TEMP:  61; 6HR PCP:  0.04;

Taylorville    DRIZZLE   43  41  93 N31G39    29.45R WCI  32
6HR MIN TEMP:  43; 6HR MAX TEMP:  65; 6HR PCP:  0.05;

$$

...REGIONAL REPORTS...


CITY           SKY/WX    TMP DP  RH WIND       PRES   REMARKS
Chicago O`Hare LGT RAIN  37  34  89 N16G25    29.47S FOG     WCI  28
Kankakee       CLOUDY    42  41  98 N23G31    29.41R WCI  32
Moline         CLOUDY    40  36  86 N14G24    29.64R WCI  32
Mount Sterling LGT RAIN  37  36  94 N24G33    29.60R WCI  26
Mount Vernon   CLOUDY    67  62  84 S29G36    29.29F
Pittsfield     RAIN      39  38  94 NW22G28   29.60R WCI  29
Quincy         LGT RAIN  40  37  89 N22G37    29.62R WCI  30
Rockford       LGT RAIN  37  34  89 N16       29.59R WCI  28
$$


CITY           SKY/WX    TMP DP  RH WIND       PRES   REMARKS
Burlington     LGT RAIN  39  38  96 N18G24    29.65S WCI  30
Cedar Rapids   CLOUDY    38  35  89 N21G30    29.71F WCI  28
Des Moines     PTSUNNY   42  31  64 NW18      29.83R WCI  34
Kirksville     CLOUDY    41  39  93 NW17G30   29.71S WCI  32
Ottumwa        CLOUDY    41  35  79 N23G32    29.75R WCI  31
St Louis       CLOUDY    46  42  86 NW26G36   29.50R
$$


CITY           SKY/WX    TMP DP  RH WIND       PRES   REMARKS
Terre Haute    LGT RAIN  67  59  75 SW25G38   29.24F
Evansville     LGT RAIN  67  61  81 SW22G33   29.38F
Indianapolis   LGT RAIN  63  59  87 SW25G40   29.26F
Lafayette      CLOUDY    48  48 100 N21G31    29.27F
Madison        CLOUDY    37  34  89 N16G28    29.61S WCI  28
Milwaukee      CLOUDY    39  36  89 N17G29    29.50F WCI  30
$$






USA.gov is the U.S. government's official web portal to all federal, state and local government web resources and services.